Starlink 31001

operational
NORAD ID: 58527 Int'l Des: 2023-191 Owner: SPXS Country: US Constellation: starlink
LEOCIRCULAR

About Starlink 31001

Description loading...

Live Position

Loading 3D Globe...

Upcoming Passes

Altitude History

Altitude vs Time

uPlot chart will show altitude changes over time

Two-Line Element Set

1 58527U 23191V 25348.91833011 .00001353 00000-0 11528-3 0 9993
2 58527 43.0021 206.1618 0001275 255.1290 104.9411 15.02512085112690
Epoch: Dec 14, 2025 • Age: 19 hours

Current Status

Altitude 561.6 km
Velocity 7.58 km/s
Sub-Earth Point -14.03°S, 154.62°W
Launch Date Dec 7, 2023
Age 2 years
Type internet

Technical Details

Classification Payload
Mass 730.00 kg
Dry Mass 700.00 kg
Total Mass 730.00 kg
Length 0.30 m
Diameter 4.10 m
Span 29.00 m
Shape Box + pan
Manufacturer SPXS
Bus Type Starlink V2M
Phase Status In Orbit
Owner/State SPXS/US

Large Constellations

Loading constellations...